| time (UTC) | temp F | wind direction | speed MPH | gust MPH | rain 1hr in | rain 24hr in | rain mn in | humidity % | barometer mb |
| 20260503045628 | 40 | 0 | 0.0 | 0.0 | 0.00 | 0.00 | 0.00 | 93 | 1016.1 |
| 20260503045126 | 40 | 0 | 0.0 | 0.0 | 0.00 | 0.00 | 0.00 | 93 | 1016.0 |
| 20260503044627 | 40 | 0 | 0.0 | 0.0 | 0.00 | 0.00 | 0.00 | 93 | 1016.0 |
| 20260503044126 | 41 | 0 | 0.0 | 0.0 | 0.00 | 0.00 | 0.00 | 93 | 1016.0 |
| 20260503043627 | 41 | 0 | 0.0 | 0.0 | 0.00 | 0.00 | 0.00 | 93 | 1016.0 |
| 20260503043126 | 41 | 0 | 0.0 | 0.0 | 0.00 | 0.00 | 0.00 | 93 | 1015.9 |
| 20260503042844 | 41 | 0 | 0.0 | 0.0 | 0.00 | 0.00 | 0.00 | 93 | 1015.9 |
| 20260503042112 | 41 | 0 | 0.0 | 1.0 | 0.00 | 0.00 | 0.00 | 92 | 1015.9 |
| 20260503041613 | 41 | 255 | 1.0 | 1.0 | 0.00 | 0.00 | 0.00 | 92 | 1015.8 |
| 20260503041112 | 42 | 244 | 1.0 | 2.0 | 0.00 | 0.00 | 0.00 | 92 | 1015.8 |
| 20260503040613 | 42 | 242 | 1.0 | 2.0 | 0.00 | 0.00 | 0.00 | 91 | 1015.8 |
| 20260503040112 | 42 | 249 | 1.0 | 1.0 | 0.00 | 0.00 | 0.00 | 91 | 1015.7 |
| 20260503035843 | 42 | 245 | 1.0 | 2.0 | 0.00 | 0.00 | 0.00 | 91 | 1015.7 |
| 20260503035110 | 42 | 257 | 2.0 | 2.0 | 0.00 | 0.00 | 0.00 | 91 | 1015.6 |
| 20260503034602 | 42 | 254 | 2.0 | 2.0 | 0.00 | 0.00 | 0.00 | 91 | 1015.6 |
| 20260503034057 | 42 | 256 | 1.0 | 2.0 | 0.00 | 0.00 | 0.00 | 90 | 1015.5 |
| 20260503033558 | 43 | 252 | 1.0 | 2.0 | 0.00 | 0.00 | 0.00 | 90 | 1015.5 |
| 20260503033329 | 43 | 260 | 1.0 | 2.0 | 0.00 | 0.00 | 0.00 | 90 | 1015.5 |
| 20260503032558 | 43 | 257 | 2.0 | 2.0 | 0.00 | 0.00 | 0.00 | 89 | 1015.5 |
| 20260503032058 | 44 | 261 | 2.0 | 4.0 | 0.00 | 0.00 | 0.00 | 89 | 1015.4 |
| 20260503031559 | 44 | 265 | 2.0 | 4.0 | 0.00 | 0.00 | 0.00 | 89 | 1015.4 |
| 20260503031058 | 44 | 274 | 3.0 | 7.0 | 0.00 | 0.00 | 0.00 | 88 | 1015.3 |
| 20260503030555 | 44 | 266 | 4.0 | 8.0 | 0.00 | 0.00 | 0.00 | 88 | 1015.3 |
| 20260503030056 | 44 | 167 | 3.0 | 8.0 | 0.00 | 0.00 | 0.00 | 90 | 1015.4 |
| 20260503025826 | 44 | 273 | 1.0 | 6.0 | 0.00 | 0.00 | 0.00 | 89 | 1015.3 |
| 20260503025327 | 44 | 269 | 2.0 | 6.0 | 0.00 | 0.00 | 0.00 | 89 | 1015.3 |
| 20260503024553 | 44 | 226 | 3.0 | 6.0 | 0.00 | 0.00 | 0.00 | 89 | 1015.3 |
| 20260503024053 | 44 | 266 | 3.0 | 6.0 | 0.00 | 0.00 | 0.00 | 89 | 1015.3 |
| 20260503023553 | 44 | 316 | 2.0 | 6.0 | 0.00 | 0.00 | 0.00 | 89 | 1015.1 |
| 20260503023052 | 44 | 249 | 2.0 | 5.0 | 0.00 | 0.00 | 0.00 | 88 | 1015.1 |
| 20260503022553 | 44 | 261 | 2.0 | 6.0 | 0.00 | 0.00 | 0.00 | 88 | 1015.1 |
| 20260503022052 | 44 | 208 | 2.0 | 6.0 | 0.00 | 0.00 | 0.00 | 89 | 1015.0 |
| 20260503021553 | 44 | 295 | 2.0 | 6.0 | 0.00 | 0.00 | 0.00 | 89 | 1015.1 |
| 20260503021052 | 44 | 336 | 2.0 | 5.0 | 0.00 | 0.00 | 0.00 | 88 | 1015.0 |
| 20260503020553 | 44 | 263 | 2.0 | 4.0 | 0.00 | 0.00 | 0.00 | 88 | 1014.8 |
| 20260503020051 | 44 | 260 | 2.0 | 4.0 | 0.00 | 0.00 | 0.00 | 88 | 1014.8 |
| 20260503015821 | 45 | 359 | 3.0 | 5.0 | 0.00 | 0.00 | 0.00 | 87 | 1014.6 |
| 20260503015050 | 45 | 264 | 3.0 | 5.0 | 0.00 | 0.00 | 0.00 | 87 | 1014.6 |
| 20260503014822 | 45 | 270 | 2.0 | 4.0 | 0.00 | 0.00 | 0.00 | 87 | 1014.5 |
| 20260503014051 | 45 | 288 | 2.0 | 4.0 | 0.00 | 0.00 | 0.00 | 86 | 1014.4 |
| 20260503013547 | 46 | 267 | 3.0 | 6.0 | 0.00 | 0.00 | 0.00 | 86 | 1014.3 |
| 20260503013047 | 46 | 286 | 3.0 | 6.0 | 0.00 | 0.00 | 0.00 | 85 | 1014.3 |
| 20260503012819 | 46 | 312 | 2.0 | 4.0 | 0.00 | 0.00 | 0.00 | 84 | 1014.1 |
| 20260503012320 | 47 | 318 | 2.0 | 4.0 | 0.00 | 0.00 | 0.00 | 83 | 1014.0 |
| 20260503011548 | 47 | 310 | 2.0 | 4.0 | 0.00 | 0.00 | 0.00 | 83 | 1013.9 |
| 20260503011048 | 47 | 323 | 2.0 | 4.0 | 0.00 | 0.00 | 0.00 | 82 | 1013.9 |
| 20260503010820 | 48 | 315 | 2.0 | 3.0 | 0.00 | 0.00 | 0.00 | 80 | 1013.8 |
| 20260503010050 | 48 | 310 | 2.0 | 3.0 | 0.00 | 0.00 | 0.00 | 79 | 1013.6 |
| 20260503005549 | 49 | 314 | 2.0 | 2.0 | 0.00 | 0.00 | 0.00 | 78 | 1013.6 |
| 20260503005049 | 49 | 257 | 1.0 | 2.0 | 0.00 | 0.00 | 0.00 | 77 | 1013.5 |
| 20260503004820 | 49 | 273 | 0.0 | 2.0 | 0.00 | 0.00 | 0.00 | 76 | 1013.2 |
| 20260503004048 | 50 | 0 | 0.0 | 0.0 | 0.00 | 0.00 | 0.00 | 75 | 1013.1 |
| 20260503003548 | 50 | 0 | 0.0 | 0.0 | 0.00 | 0.00 | 0.00 | 75 | 1013.2 |
| 20260503003048 | 51 | 0 | 0.0 | 0.0 | 0.00 | 0.00 | 0.00 | 75 | 1013.1 |
| 20260503002549 | 51 | 0 | 0.0 | 0.0 | 0.00 | 0.00 | 0.00 | 74 | 1013.1 |
| 20260503002054 | 51 | 0 | 0.0 | 2.0 | 0.00 | 0.00 | 0.00 | 72 | 1012.8 |
| 20260503002048 | 51 | 0 | 0.0 | 1.0 | 0.00 | 0.00 | 0.00 | 73 | 1012.8 |
| 20260503001046 | 51 | 269 | 0.0 | 2.0 | 0.00 | 0.00 | 0.00 | 73 | 1012.8 |
| 20260503000546 | 52 | 288 | 0.0 | 2.0 | 0.00 | 0.00 | 0.00 | 72 | 1012.6 |
| 20260503000046 | 52 | 0 | 0.0 | 0.0 | 0.00 | 0.00 | 0.00 | 71 | 1012.6 |
| 20260502235546 | 53 | 0 | 0.0 | 0.0 | 0.00 | 0.00 | 0.00 | 70 | 1012.5 |
| 20260502235046 | 53 | 0 | 0.0 | 0.0 | 0.00 | 0.00 | 0.00 | 68 | 1012.5 |
| 20260502234546 | 54 | 0 | 0.0 | 1.0 | 0.00 | 0.00 | 0.00 | 67 | 1012.5 |
| 20260502234046 | 54 | 0 | 0.0 | 1.0 | 0.00 | 0.00 | 0.00 | 66 | 1012.4 |
| 20260502233546 | 55 | 0 | 0.0 | 1.0 | 0.00 | 0.00 | 0.00 | 65 | 1012.4 |
| 20260502233046 | 55 | 0 | 0.0 | 1.0 | 0.00 | 0.00 | 0.00 | 63 | 1012.3 |
| 20260502232546 | 56 | 0 | 0.0 | 1.0 | 0.00 | 0.00 | 0.00 | 61 | 1012.2 |
| 20260502232316 | 56 | 0 | 0.0 | 1.0 | 0.00 | 0.00 | 0.00 | 61 | 1012.2 |
| 20260502231546 | 56 | 0 | 0.0 | 1.0 | 0.00 | 0.00 | 0.00 | 60 | 1012.1 |
| 20260502231046 | 57 | 0 | 0.0 | 1.0 | 0.00 | 0.00 | 0.00 | 59 | 1012.0 |
| 20260502230543 | 57 | 0 | 0.0 | 2.0 | 0.00 | 0.00 | 0.00 | 57 | 1011.9 |
| 20260502230044 | 58 | 0 | 0.0 | 2.0 | 0.00 | 0.00 | 0.00 | 56 | 1011.8 |
| 20260502225544 | 58 | 0 | 0.0 | 2.0 | 0.00 | 0.00 | 0.00 | 55 | 1011.8 |
| 20260502225043 | 58 | 0 | 0.0 | 5.0 | 0.00 | 0.00 | 0.00 | 54 | 1011.6 |
| 20260502224544 | 59 | 0 | 0.0 | 5.0 | 0.00 | 0.00 | 0.00 | 53 | 1011.6 |
| 20260502224315 | 59 | 0 | 0.0 | 3.0 | 0.00 | 0.00 | 0.00 | 52 | 1011.6 |
| 20260502223544 | 59 | 0 | 0.0 | 3.0 | 0.00 | 0.00 | 0.00 | 53 | 1011.6 |
| 20260502223041 | 60 | 241 | 0.0 | 5.0 | 0.00 | 0.00 | 0.00 | 52 | 1011.6 |
| 20260502222542 | 60 | 0 | 0.0 | 5.0 | 0.00 | 0.00 | 0.00 | 52 | 1011.5 |
| 20260502222041 | 60 | 0 | 0.0 | 2.0 | 0.00 | 0.00 | 0.00 | 50 | 1011.5 |
| 20260502221542 | 60 | 0 | 0.0 | 2.0 | 0.00 | 0.00 | 0.00 | 49 | 1011.5 |
| 20260502221312 | 60 | 0 | 0.0 | 4.0 | 0.00 | 0.00 | 0.00 | 48 | 1011.5 |
| 20260502220542 | 60 | 0 | 0.0 | 4.0 | 0.00 | 0.00 | 0.00 | 49 | 1011.4 |
| 20260502220309 | 60 | 0 | 0.0 | 2.0 | 0.00 | 0.00 | 0.00 | 49 | 1011.4 |
| 20260502215538 | 60 | 0 | 0.0 | 2.0 | 0.00 | 0.00 | 0.00 | 51 | 1011.3 |
| 20260502215310 | 60 | 0 | 0.0 | 3.0 | 0.00 | 0.00 | 0.00 | 49 | 1011.2 |
| 20260502214539 | 61 | 0 | 0.0 | 3.0 | 0.00 | 0.00 | 0.00 | 48 | 1011.1 |
| 20260502214310 | 61 | 274 | 0.0 | 4.0 | 0.00 | 0.00 | 0.00 | 45 | 1011.2 |
| 20260502213539 | 61 | 0 | 1.0 | 4.0 | 0.00 | 0.00 | 0.00 | 43 | 1011.2 |
| 20260502213038 | 61 | 0 | 0.0 | 4.0 | 0.00 | 0.00 | 0.00 | 43 | 1011.2 |
| 20260502212537 | 61 | 0 | 0.0 | 2.0 | 0.00 | 0.00 | 0.00 | 46 | 1011.2 |
| 20260502212036 | 61 | 0 | 0.0 | 2.0 | 0.00 | 0.00 | 0.00 | 48 | 1011.2 |
| 20260502211537 | 61 | 0 | 1.0 | 7.0 | 0.00 | 0.00 | 0.00 | 48 | 1011.2 |
| 20260502211036 | 61 | 0 | 2.0 | 7.0 | 0.00 | 0.00 | 0.00 | 46 | 1011.1 |
| 20260502210534 | 61 | 31 | 2.0 | 7.0 | 0.00 | 0.00 | 0.00 | 44 | 1011.1 |
| 20260502210035 | 61 | 0 | 1.0 | 4.0 | 0.00 | 0.00 | 0.00 | 46 | 1011.1 |
| 20260502205533 | 61 | 0 | 1.0 | 4.0 | 0.00 | 0.00 | 0.00 | 48 | 1011.1 |
| 20260502205034 | 60 | 226 | 1.0 | 4.0 | 0.00 | 0.00 | 0.00 | 49 | 1011.2 |
| 20260502204805 | 59 | 0 | 1.0 | 5.0 | 0.00 | 0.00 | 0.00 | 46 | 1011.2 |
| 20260502204033 | 59 | 160 | 2.0 | 7.0 | 0.00 | 0.00 | 0.00 | 46 | 1011.2 |
| 20260502203535 | 60 | 253 | 2.0 | 7.0 | 0.00 | 0.00 | 0.00 | 45 | 1011.2 |
| 20260502203033 | 60 | 216 | 0.0 | 6.0 | 0.00 | 0.00 | 0.00 | 47 | 1011.3 |
| 20260502202534 | 59 | 0 | 1.0 | 5.0 | 0.00 | 0.00 | 0.00 | 46 | 1011.3 |
| 20260502202034 | 59 | 0 | 2.0 | 7.0 | 0.00 | 0.00 | 0.00 | 46 | 1011.3 |
| 20260502201534 | 59 | 353 | 3.0 | 7.0 | 0.00 | 0.00 | 0.00 | 44 | 1011.3 |
| 20260502201302 | 59 | 336 | 2.0 | 7.0 | 0.00 | 0.00 | 0.00 | 44 | 1011.4 |
| 20260502200532 | 59 | 313 | 2.0 | 8.0 | 0.00 | 0.00 | 0.00 | 46 | 1011.5 |
| 20260502200034 | 59 | 0 | 2.0 | 8.0 | 0.00 | 0.00 | 0.00 | 44 | 1011.6 |
| 20260502200029 | 59 | 10 | 2.0 | 8.0 | 0.00 | 0.00 | 0.00 | 44 | 1011.6 |
| 20260502195025 | 59 | 253 | 3.0 | 9.0 | 0.00 | 0.00 | 0.00 | 47 | 1011.8 |
| 20260502194522 | 59 | 0 | 3.0 | 9.0 | 0.00 | 0.00 | 0.00 | 49 | 1011.9 |
| 20260502194020 | 59 | 23 | 2.0 | 6.0 | 0.00 | 0.00 | 0.00 | 47 | 1011.9 |
| 20260502193521 | 59 | 186 | 1.0 | 4.0 | 0.00 | 0.00 | 0.00 | 46 | 1012.1 |
| 20260502193019 | 58 | 0 | 1.0 | 5.0 | 0.00 | 0.00 | 0.00 | 52 | 1012.2 |
| 20260502192521 | 57 | 0 | 2.0 | 5.0 | 0.00 | 0.00 | 0.00 | 48 | 1012.3 |
| 20260502192020 | 56 | 0 | 2.0 | 6.0 | 0.00 | 0.00 | 0.00 | 50 | 1012.4 |
| 20260502191754 | 56 | 19 | 3.0 | 9.0 | 0.00 | 0.00 | 0.00 | 51 | 1012.4 |
| 20260502191252 | 56 | 19 | 3.0 | 9.0 | 0.00 | 0.00 | 0.00 | 51 | 1012.4 |
| 20260502190521 | 55 | 342 | 2.0 | 8.0 | 0.00 | 0.00 | 0.00 | 52 | 1012.5 |
| 20260502190020 | 55 | 329 | 2.0 | 8.0 | 0.00 | 0.00 | 0.00 | 52 | 1012.6 |
| 20260502185523 | 55 | 5 | 4.0 | 8.0 | 0.00 | 0.00 | 0.00 | 50 | 1012.5 |
| 20260502185018 | 55 | 24 | 3.0 | 8.0 | 0.00 | 0.00 | 0.00 | 51 | 1012.5 |
| 20260502184519 | 55 | 351 | 3.0 | 7.0 | 0.00 | 0.00 | 0.00 | 51 | 1012.4 |
| 20260502184019 | 55 | 18 | 3.0 | 9.0 | 0.00 | 0.00 | 0.00 | 50 | 1012.4 |
| 20260502183520 | 55 | 11 | 3.0 | 9.0 | 0.00 | 0.00 | 0.00 | 50 | 1012.5 |
| 20260502183019 | 55 | 320 | 2.0 | 9.0 | 0.00 | 0.00 | 0.00 | 51 | 1012.5 |
| 20260502182521 | 56 | 14 | 2.0 | 9.0 | 0.00 | 0.00 | 0.00 | 50 | 1012.5 |
| 20260502182026 | 55 | 343 | 3.0 | 11.0 | 0.00 | 0.00 | 0.00 | 53 | 1012.6 |
| 20260502182020 | 56 | 179 | 2.0 | 5.0 | 0.00 | 0.00 | 0.00 | 52 | 1012.5 |
| 20260502181518 | 55 | 213 | 4.0 | 11.0 | 0.00 | 0.00 | 0.00 | 51 | 1012.5 |
| 20260502180518 | 56 | 324 | 4.0 | 9.0 | 0.00 | 0.00 | 0.00 | 52 | 1012.7 |
| 20260502170504 | 55 | 161 | 4.0 | 9.0 | 0.00 | 0.00 | 0.00 | 56 | 1013.2 |
| 20260502164016 | 54 | 351 | 4.0 | 9.0 | 0.00 | 0.00 | 0.00 | 60 | 1013.8 |
| 20260502164004 | 55 | 336 | 3.0 | 10.0 | 0.00 | 0.00 | 0.00 | 60 | 1013.6 |
| 20260502163504 | 54 | 349 | 3.0 | 10.0 | 0.00 | 0.00 | 0.00 | 61 | 1013.7 |
| 20260502162504 | 54 | 348 | 3.0 | 11.0 | 0.00 | 0.00 | 0.00 | 59 | 1013.8 |
| 20260502162001 | 54 | 347 | 4.0 | 11.0 | 0.00 | 0.00 | 0.00 | 62 | 1013.8 |
| 20260502161501 | 54 | 351 | 5.0 | 11.0 | 0.00 | 0.00 | 0.00 | 61 | 1013.8 |
| 20260502160958 | 54 | 334 | 4.0 | 9.0 | 0.00 | 0.00 | 0.00 | 62 | 1013.9 |
| 20260502160729 | 54 | 227 | 4.0 | 9.0 | 0.00 | 0.00 | 0.00 | 64 | 1014.1 |
| 20260502152225 | 53 | 329 | 4.0 | 8.0 | 0.00 | 0.00 | 0.00 | 65 | 1014.8 |
| 20260502151447 | 53 | 245 | 3.0 | 9.0 | 0.00 | 0.00 | 0.00 | 64 | 1014.3 |
| 20260502150941 | 53 | 6 | 4.0 | 11.0 | 0.00 | 0.00 | 0.00 | 66 | 1014.3 |
| 20260502150438 | 53 | 357 | 3.0 | 11.0 | 0.00 | 0.00 | 0.00 | 66 | 1014.4 |
| 20260502130313 | 53 | 326 | 3.0 | 8.0 | 0.00 | 0.00 | 0.00 | 78 | 1013.3 |
| 20260502123313 | 54 | 4 | 4.0 | 7.0 | 0.00 | 0.00 | 0.00 | 77 | 1013.1 |
| 20260502122813 | 54 | 354 | 3.0 | 9.0 | 0.00 | 0.00 | 0.00 | 79 | 1012.8 |
| 20260502122313 | 54 | 2 | 2.0 | 9.0 | 0.00 | 0.00 | 0.00 | 80 | 1012.6 |
| 20260502121813 | 54 | 288 | 3.0 | 10.0 | 0.00 | 0.00 | 0.00 | 79 | 1013.1 |
| 20260502121313 | 53 | 232 | 4.0 | 10.0 | 0.00 | 0.00 | 0.00 | 80 | 1013.2 |
| 20260502120813 | 53 | 14 | 5.0 | 11.0 | 0.00 | 0.00 | 0.00 | 81 | 1013.3 |
| 20260502120308 | 53 | 298 | 4.0 | 11.0 | 0.00 | 0.00 | 0.00 | 81 | 1013.3 |
| 20260502115807 | 53 | 325 | 3.0 | 7.0 | 0.00 | 0.00 | 0.00 | 83 | 1013.2 |
| 20260502115308 | 53 | 332 | 3.0 | 7.0 | 0.00 | 0.00 | 0.00 | 85 | 1013.2 |
| 20260502114808 | 53 | 3 | 4.0 | 7.0 | 0.00 | 0.00 | 0.00 | 87 | 1013.3 |
| 20260502114301 | 53 | 356 | 4.0 | 7.0 | 0.00 | 0.00 | 0.00 | 88 | 1013.2 |
| 20260502113802 | 53 | 358 | 4.0 | 8.0 | 0.00 | 0.00 | 0.00 | 89 | 1013.3 |
| 20260502113302 | 53 | 322 | 4.0 | 8.0 | 0.00 | 0.00 | 0.00 | 89 | 1012.9 |
| 20260502112802 | 53 | 5 | 4.0 | 8.0 | 0.00 | 0.00 | 0.00 | 90 | 1012.7 |
| 20260502112305 | 53 | 340 | 4.0 | 8.0 | 0.00 | 0.00 | 0.00 | 91 | 1012.7 |
| 20260502111804 | 53 | 337 | 3.0 | 8.0 | 0.00 | 0.00 | 0.00 | 92 | 1012.7 |
| 20260502111303 | 52 | 4 | 3.0 | 8.0 | 0.00 | 0.00 | 0.00 | 93 | 1012.6 |
| 20260502110803 | 52 | 356 | 3.0 | 8.0 | 0.00 | 0.00 | 0.00 | 94 | 1012.6 |
| 20260502110531 | 52 | 6 | 2.0 | 6.0 | 0.00 | 0.00 | 0.00 | 94 | 1012.6 |
| 20260502110027 | 52 | 338 | 3.0 | 6.0 | 0.00 | 0.00 | 0.00 | 94 | 1012.6 |
| 20260502105257 | 52 | 350 | 4.0 | 6.0 | 0.00 | 0.00 | 0.00 | 95 | 1012.6 |
| 20260502104756 | 52 | 346 | 3.0 | 6.0 | 0.00 | 0.00 | 0.00 | 95 | 1012.4 |
| 20260502104528 | 52 | 336 | 2.0 | 5.0 | 0.00 | 0.00 | 0.00 | 95 | 1012.4 |
| 20260502103744 | 52 | 327 | 2.0 | 5.0 | 0.00 | 0.00 | 0.00 | 95 | 1012.3 |
| 20260502103241 | 52 | 341 | 2.0 | 9.0 | 0.00 | 0.00 | 0.00 | 95 | 1012.4 |
| 20260502102740 | 52 | 0 | 3.0 | 9.0 | 0.00 | 0.00 | 0.00 | 95 | 1012.5 |
| 20260502102234 | 52 | 4 | 4.0 | 9.0 | 0.00 | 0.00 | 0.00 | 95 | 1012.5 |
| 20260502101734 | 52 | 353 | 3.0 | 6.0 | 0.00 | 0.00 | 0.00 | 95 | 1012.5 |
| 20260502101229 | 52 | 317 | 2.0 | 4.0 | 0.00 | 0.00 | 0.00 | 95 | 1012.5 |
| 20260502100728 | 52 | 320 | 1.0 | 4.0 | 0.00 | 0.00 | 0.00 | 95 | 1012.5 |
| 20260502100228 | 52 | 0 | 0.0 | 3.0 | 0.00 | 0.00 | 0.00 | 95 | 1012.7 |
| 20260502091447 | 53 | 0 | 0.0 | 0.0 | 0.00 | 0.00 | 0.00 | 94 | 1013.3 |
| 20260502090214 | 53 | 0 | 0.0 | 0.0 | 0.00 | 0.00 | 0.00 | 94 | 1013.4 |
| 20260502071151 | 52 | 346 | 4.0 | 7.0 | 0.00 | 0.00 | 0.00 | 94 | 1012.2 |
| 20260502070649 | 52 | 319 | 2.0 | 7.0 | 0.00 | 0.00 | 0.00 | 94 | 1012.1 |
| 20260502070148 | 52 | 0 | 1.0 | 5.0 | 0.00 | 0.00 | 0.00 | 94 | 1011.9 |
| 20260502065648 | 52 | 0 | 2.0 | 5.0 | 0.00 | 0.00 | 0.00 | 94 | 1011.9 |
| 20260502065145 | 52 | 346 | 1.0 | 4.0 | 0.00 | 0.00 | 0.00 | 94 | 1011.8 |
| 20260502064645 | 52 | 0 | 0.0 | 0.0 | 0.00 | 0.00 | 0.00 | 94 | 1011.7 |
| 20260502064146 | 52 | 0 | 0.0 | 0.0 | 0.00 | 0.00 | 0.00 | 94 | 1011.7 |
| 20260502063643 | 52 | 0 | 0.0 | 0.0 | 0.00 | 0.00 | 0.00 | 94 | 1011.8 |
| 20260502063142 | 52 | 0 | 0.0 | 0.0 | 0.00 | 0.00 | 0.00 | 94 | 1011.9 |
| 20260502062647 | 52 | 0 | 0.0 | 0.0 | 0.00 | 0.00 | 0.00 | 94 | 1012.0 |
| 20260502062643 | 52 | 0 | 0.0 | 0.0 | 0.00 | 0.00 | 0.00 | 94 | 1012.0 |
| 20260502061914 | 52 | 0 | 0.0 | 1.0 | 0.00 | 0.00 | 0.00 | 94 | 1012.1 |
| 20260502061143 | 52 | 0 | 0.0 | 1.0 | 0.00 | 0.00 | 0.00 | 94 | 1012.2 |
| 20260502060914 | 52 | 0 | 0.0 | 0.0 | 0.00 | 0.00 | 0.00 | 94 | 1012.2 |
| 20260502060143 | 52 | 0 | 0.0 | 1.0 | 0.00 | 0.00 | 0.00 | 94 | 1012.3 |
| 20260502055643 | 52 | 0 | 0.0 | 1.0 | 0.00 | 0.00 | 0.00 | 94 | 1012.3 |
| 20260502055140 | 52 | 293 | 0.0 | 1.0 | 0.00 | 0.00 | 0.00 | 94 | 1012.4 |
| 20260502054640 | 52 | 0 | 0.0 | 1.0 | 0.00 | 0.00 | 0.00 | 94 | 1012.5 |
| 20260502054140 | 52 | 0 | 0.0 | 1.0 | 0.00 | 0.00 | 0.00 | 94 | 1012.5 |
| 20260502053641 | 52 | 0 | 0.0 | 3.0 | 0.00 | 0.00 | 0.00 | 94 | 1012.5 |
| 20260502053138 | 52 | 305 | 0.0 | 3.0 | 0.00 | 0.00 | 0.00 | 94 | 1012.6 |
| 20260502052637 | 52 | 0 | 0.0 | 1.0 | 0.00 | 0.00 | 0.00 | 93 | 1012.5 |
| 20260502052138 | 52 | 0 | 0.0 | 1.0 | 0.00 | 0.00 | 0.00 | 93 | 1012.5 |
| 20260502051638 | 52 | 299 | 0.0 | 1.0 | 0.00 | 0.00 | 0.00 | 93 | 1012.5 |
| 20260502051138 | 52 | 0 | 0.0 | 0.0 | 0.00 | 0.00 | 0.00 | 93 | 1012.6 |
| 20260502050638 | 52 | 0 | 0.0 | 0.0 | 0.00 | 0.00 | 0.00 | 93 | 1012.6 |
| 20260502050138 | 52 | 0 | 0.0 | 0.0 | 0.00 | 0.00 | 0.00 | 93 | 1012.6 |